Location: Newark
(27.9675°N, 86.8869°E)
Time: 00:39:27
(UTC+00:00)

Tiros 1 - All Passes

Search period start: 17 October 2019 00:00
Search period end: 27 October 2019 00:00
Orbit: 630 x 664 km, 48.4° (Epoch: 16 October)

Date Brightness Start Highest point End Pass type
(mag) Time Alt. Az. Time Alt. Az. Time Alt. Az.
17 Oct - 02:24:42 10° NNW 02:28:02 18° NNE 02:31:21 10° ENE daylight
17 Oct - 04:05:52 10° NW 04:10:40 81° SW 04:15:24 10° SE daylight
17 Oct - 18:14:28 10° S 18:17:43 19° SE 18:21:00 10° E night (unlit)
17 Oct - 19:54:56 10° WSW 19:59:35 55° NW 20:04:18 10° NE night (unlit)
17 Oct - 21:40:36 10° NW 21:42:37 12° NNW 21:44:38 10° N visible
18 Oct - 02:50:01 10° NNW 02:54:29 37° NE 02:58:54 10° ESE daylight
18 Oct - 04:32:26 10° WNW 04:36:34 29° SW 04:40:38 10° S daylight
18 Oct - 18:38:57 10° SSW 18:43:32 51° SE 18:48:10 10° ENE night (unlit)
18 Oct - 20:21:59 10° W 20:25:54 25° NNW 20:29:51 10° NNE night (unlit)
19 Oct - 01:34:46 10° NNW 01:37:57 17° NNE 01:41:06 10° ENE daylight
19 Oct - 03:15:49 10° NW 03:20:39 89° SW 03:25:24 10° SE daylight
19 Oct - 05:02:08 10° WSW 05:02:17 10° SW 05:02:25 10° SW daylight
19 Oct - 17:24:46 10° SSE 17:27:44 17° SE 17:30:42 10° E night (unlit)
19 Oct - 19:04:52 10° WSW 19:09:32 61° NW 19:14:17 10° NE night (unlit)
19 Oct - 20:50:15 10° NW 20:52:31 13° NNW 20:54:47 10° N visible
20 Oct - 02:00:02 10° NNW 02:04:26 34° NE 02:08:46 10° ESE daylight
20 Oct - 03:42:18 10° WNW 03:46:34 32° SW 03:50:47 10° SSE daylight
20 Oct - 17:49:01 10° SSW 17:53:31 45° SE 17:58:04 10° ENE night (unlit)
20 Oct - 19:31:50 10° W 19:35:50 26° NNW 19:39:53 10° NNE night (unlit)
21 Oct - 00:44:51 10° N 00:47:51 16° NNE 00:50:50 10° ENE daylight
21 Oct - 02:25:47 10° NW 02:30:37 83° NE 02:35:23 10° SE daylight
21 Oct - 04:10:43 10° WSW 04:12:18 11° SW 04:13:52 10° SW daylight
21 Oct - 16:35:09 10° SSE 16:37:45 15° SE 16:40:22 10° E night (unlit)
21 Oct - 18:14:49 10° SW 18:19:30 67° NW 18:24:16 10° NE night (unlit)
21 Oct - 19:59:56 10° WNW 20:02:25 14° NNW 20:04:55 10° N night (unlit)
22 Oct - 01:10:04 10° NNW 01:14:22 32° NE 01:18:38 10° E daylight
22 Oct - 02:52:10 10° WNW 02:56:33 36° SW 03:00:54 10° SSE daylight
22 Oct - 16:59:07 10° SSW 17:03:31 40° SE 17:07:58 10° ENE night (unlit)
22 Oct - 18:41:40 10° W 18:45:45 28° NW 18:49:54 10° NNE night (unlit)
22 Oct - 23:54:57 10° N 23:57:45 15° NNE 00:00:33 10° ENE visible
23 Oct - 01:35:46 10° NW 01:40:35 76° NE 01:45:22 10° SE daylight
23 Oct - 03:20:07 10° W 03:22:18 13° SW 03:24:29 10° SSW daylight
23 Oct - 15:45:36 10° SSE 15:47:46 13° SE 15:49:56 10° E night (unlit)
23 Oct - 17:24:47 10° SW 17:29:28 74° NW 17:34:14 10° NE night (unlit)
23 Oct - 19:09:38 10° WNW 19:12:19 15° NNW 19:15:01 10° N night (unlit)
24 Oct - 00:20:06 10° NNW 00:24:18 29° NE 00:28:29 10° E daylight
24 Oct - 02:02:03 10° WNW 02:06:33 40° SW 02:11:00 10° SSE daylight
24 Oct - 16:09:13 10° SSW 16:13:30 36° SE 16:17:51 10° ENE night (unlit)
24 Oct - 17:51:32 10° W 17:55:42 31° NW 17:59:56 10° NNE night (unlit)
24 Oct - 23:05:04 10° N 23:07:39 14° NNE 23:10:15 10° ENE visible
25 Oct - 00:45:44 10° NW 00:50:32 69° NE 00:55:19 10° SE daylight
25 Oct - 02:29:41 10° W 02:32:19 15° SW 02:34:57 10° SSW daylight
25 Oct - 14:56:14 10° SE 14:57:47 11° SE 14:59:19 10° ESE night (unlit)
25 Oct - 16:34:46 10° SW 16:39:27 82° NW 16:44:13 10° NE night (unlit)
25 Oct - 18:19:21 10° WNW 18:22:13 16° NNW 18:25:06 10° N night (unlit)
25 Oct - 23:30:07 10° NNW 23:34:13 27° NE 23:38:18 10° E visible
26 Oct - 01:11:57 10° WNW 01:16:32 45° SW 01:21:04 10° SSE daylight
26 Oct - 15:19:20 10° SSW 15:23:30 33° SE 15:27:43 10° ENE night (unlit)
26 Oct - 17:01:24 10° W 17:05:38 33° NW 17:09:57 10° NNE night (unlit)
26 Oct - 22:15:12 10° N 22:17:33 13° NNE 22:19:54 10° NE visible
